www.pogodaiklimat.ru

АРХИВ ПОГОДЫ в Оклахома-Сити

Время (UTC), дата Ветер
(напр.,м/с)
 
Видим.   Явления Облачность Т
(С)
Тd
(С)
f
(%)
Тe
(С)
Тes
(С)
Комфортность

P
(гПа)

Po
(гПа)
Тmin
(С)
Tmax
(С)
R
(мм)
SD
(см)
08:52 14.06 Ю  10 км  гроза с сильным дождем, дымка  10/8 1260 м
[средняя] 
+16.7  +15.0  90  +15  +15    1015.1           
09:11 14.06 Ю  4 км  гроза с сильным дождем, дымка  10/8 1410 м
[средняя] 
+16.1  +15.6  97  +14  +14      969.2         
09:18 14.06 Ю  10 км  гроза с дождем, дымка  10/8 1500 м
[средняя] 
+16.7  +15.6  93  +15  +15               
09:52 14.06 ЮВ  16 км    10/0 2700 м
[средняя верхняя] 
+16.7  +15.6  93  +15  +15    1014.0  968.6         
10:52 14.06 Ю  16 км    10/2 1800 м
[средняя верхняя] 
+16.7  +15.6  93  +15  +15    1013.7  968.2  +16.1  +19.4  12.7   
11:52 14.06 ЮВ  16 км  слабый дождь  10/5 1410 м
[средняя] 
+17.2  +16.1  93  +16  +16    1014.1  968.6         
12:52 14.06 ЮВ  16 км    8/5 1170 м
[средняя] 
+17.8  +16.1  90  +17  +17    1014.1  968.6         
13:52 14.06 ЮВ  16 км    8/0 4500 м
[средняя] 
+19.4  +16.7  84  +21  +21  комфорт  1013.9  968.2         
14:52 14.06 Ю  7
{11} 
16 км    8/0 4500 м
[средняя] 
+20.6  +16.7  78  +23  +24  комфорт  1012.8  967.3         
15:52 14.06 Ю  10
{14} 
16 км    8/0 4500 м
[средняя верхняя] 
+23.3  +17.2  69  +29  +29  душно  1011.1  965.7         
16:52 14.06 Ю  11
{15} 
16 км    8/0 4500 м
[средняя верхняя] 
+25.0  +18.3  66  +29  +29  душно  1010.2  965.0  +16.7  +25.6     
17:52 14.06 Ю  10
{14} 
16 км    8/2 900 м
[средняя верхняя] 
+26.7  +19.4  64  +32  +32  очень
душно 
1009.3  964.0         
18:52 14.06 Ю  11
{17} 
16 км    8/2 900 м
[верхняя] 
+28.3  +20.6  63  +35  +35  очень
душно 
1008.3  963.4         
19:52 14.06 Ю  9
{14} 
16 км    8/2 1140 м
[средняя верхняя] 
+28.9  +21.1  63  +36  +37  очень
душно 
1008.0  963.1         
20:52 14.06 Ю  11
{14} 
16 км    8/8 1320 м
[верхняя] 
+28.9  +21.7  65  +37  +37  очень
душно 
1007.7  962.8         
21:52 14.06 Ю  11
{13} 
16 км    8/5 1260 м
[верхняя] 
+28.3  +20.6  63  +35  +35  очень
душно 
1007.3  962.1         
22:52 14.06 Ю  8
{13} 
16 км    8/8 1350 м
[верхняя] 
+28.9  +21.1  63  +36  +36  очень
душно 
1007.0  962.1  +25.0  +29.4     
23:52 14.06 Ю  8
{12} 
16 км    8/2 1350 м
[верхняя] 
+27.2  +21.1  69  +34  +34  очень
душно 
1006.9  961.8         
00:52 15.06 Ю  16 км    5/0 7500 м
[верхняя] 
+26.1  +21.1  74  +33  +33  очень
душно 
1006.2  961.1         
01:52 15.06 Ю  16 км    5/0 7500 м
[верхняя] 
+25.0  +21.1  79  +32  +32  очень
душно 
1006.3  961.5         
02:52 15.06 Ю  7
{10} 
16 км    8/0 6000 м
[средняя верхняя] 
+25.0  +21.1  79  +32  +32  очень
душно 
1007.2  962.1         
03:52 15.06 Ю  9
{13} 
16 км    8/0 7500 м
[верхняя] 
+24.4  +20.6  79  +30  +30  очень
душно 
1005.7  960.8         
04:52 15.06 Ю  7
{10} 
16 км    8/0 7500 м
[верхняя] 
+23.9  +20.6  82  +30  +30  очень
душно 
1006.3  961.5  +23.9  +28.9     
05:52 15.06 Ю  16 км    8/0 7500 м
[верхняя] 
+23.9  +20.0  79  +29  +29  душно  1005.7  961.1         
06:52 15.06 Ю  16 км    10/0 4500 м
[средняя верхняя] 
+24.4  +19.4  74  +30  +30  очень
душно 
1004.8  960.2         
07:52 15.06 СВ  16 км    10/5 1080 м
[средняя верхняя] 
+24.4  +19.4  74  +30  +30  очень
душно 
1008.8  964.0         
08:52 15.06 В  16 км  гроза  10/8 1140 м
[средняя] 
+23.3  +20.6  85  +31  +31  очень
душно 
1008.6  963.7         
09:32 15.06 ЮВ  16 км    10/2 1050 м
[средняя] 
+22.2  +20.6  91  +29  +29  очень
душно 
  963.1         
09:52 15.06 ЮВ  16 км  слабый дождь  10/5 870 м
[средняя] 
+22.2  +20.6  91  +29  +29  очень
душно 
1007.8  963.1         
10:52 15.06 Ю  16 км  слабый дождь  10/0 3300 м
[средняя] 
+21.7  +20.6  93  +27  +27  душно  1007.5  962.8  +21.7  +25.0  0.5   
11:52 15.06 ЮВ  16 км    10/0 3000 м
[средняя верхняя] 
+22.2  +20.0  87  +28  +28  душно  1007.8  963.1         
12:11 15.06 ЮВ  4
{9} 
16 км  гроза  10/0 3000 м
[средняя верхняя] 
+22.8  +20.0  84  +29  +30  очень
душно 
  963.7         
12:29 15.06 ЮВ  16 км    10/0 3000 м
[средняя верхняя] 
+22.8  +20.0  84  +29  +30  очень
душно 
  963.7         
12:52 15.06 ЮВ  16 км    10/5 1200 м
[средняя верхняя] 
+22.8  +20.0  84  +29  +30  очень
душно 
1009.2  964.4         
13:33 15.06 Ю  16 км    8/8 630 м
[средняя верхняя] 
+24.4  +20.6  79  +30  +31  очень
душно 
  964.0         
13:52 15.06 Ю  16 км    10/8 630 м
[средняя верхняя] 
+24.4  +21.1  82  +31  +31  очень
душно 
1008.9  964.0         
14:52 15.06 Ю  8
{11} 
16 км    10/8 630 м
[верхняя] 
+26.1  +21.7  77  +34  +34  очень
душно 
1007.9  963.1         
15:52 15.06 Ю  9
{11} 
16 км    8/8 690 м
[средняя верхняя] 
+27.2  +22.2  74  +35  +35  очень
душно 
1007.7  963.1         
16:20 15.06 Ю  8
{13} 
16 км    8/5 720 м
[средняя верхняя] 
+27.8  +22.2  72  +36  +37  очень
душно 
  962.8         
16:52 15.06 Ю  10
{13} 
16 км    8/5 780 м
[средняя верхняя] 
+28.3  +22.2  70  +37  +37  очень
душно 
1006.9  962.1  +21.7  +28.9     
17:52 15.06 Ю  8
{13} 
16 км    8/8 900 м
[верхняя] 
+29.4  +22.2  65  +38  +39  очень
душно 
1007.0  962.4         
18:52 15.06 Ю  16 км    8/8 1170 м
[верхняя] 
+29.4  +22.8  68  +39  +40  очень
душно 
1006.9  962.4         
19:52 15.06 Ю  16 км    10/10 1440 м  +28.9  +22.8  70  +38  +38  очень
душно 
1007.2  962.4         
20:52 15.06 Ю  16 км    10/10 1290 м  +30.0  +23.3  67  +40  +40  очень
душно 
1007.2  962.4         
21:52 15.06 Ю  16 км    8/5 1230 м
[средняя] 
+29.4  +23.3  70  +40  +42  очень
душно 
1006.9  962.1         
22:52 15.06 ЮВ  16 км    8/5 1500 м
[средняя] 
+29.4  +23.3  70  +40  +41  очень
душно 
1006.5  961.8  +28.3  +30.6     
23:52 15.06 ЮВ  16 км    8/2 1500 м
[средняя верхняя] 
+28.3  +23.3  74  +38  +39  очень
душно 
1006.5  961.8         
00:52 16.06 ЮВ  16 км    10/5 1500 м
[средняя верхняя] 
+27.2  +22.8  77  +36  +36  очень
душно 
1006.3  961.5         

 

Местоположение метеостанции Will Rogers World Airport: широта 35.3886 долгота -97.6003 высота над уровнем моря 394 м.

В архиве по умолчанию представлена погода в Оклахома-Сити за последние 1-2 суток. Обновление информации о фактической погоде в базе происходит ежечасно! Архивные данные за месяц целиком и за предыдущие месяцы Вы можете получить, выбрав интересующий диапазон дат из раскрывающегося списка и нажав кнопку "Ввод!".

Внимание! Архив погоды МЕТАР в базе сайта в настоящее время начинается c 1 января 2011 г. Нет смысла пытаться выбрать более раннюю дату.

Внимание! Время в таблицах - всемирное. Для получения местного времени необходимо прибавить поправку, которая в Оклахома-Сити равна -6 ч.

Ветер - указаны скорость ветра в м/с и направление, откуда дует ветер: С - северный, СВ - северо-восточный, В - восточный, ЮВ - юго-восточный, Ю - южный, ЮЗ - юго-западный, З - западный, СЗ - северо-западный.
Видимость - горизонтальная дальность видимости в метрах или километрах. При видимости от 1 до 10 км при отсутствии осадков обычно наблюдается дымка, при ухудшении видимости до 1 км и менее - туман. В сухую погоду видимость может ухудшаться дымом, пылью или мглою.
Атмосферные явления - указаны явления, наблюдавшиеся в указанный момент времени.
Облачность - указаны через наклонную черту верхняя и нижняя облачность в баллах и высота нижней границы облаков в метрах. Внимание: облачность, как и прочие метеорологические величины в США измеряются автоматическими метеостанциями. Указанные значения в баллах носят условный характер и показывают процент времени, в течение которого, в среднем, лазерный луч высотомера отражался от облаков обратно.
T - Температура воздуха - температура, измеренная на высоте 2 м над землей.
Td - Температура точки росы - температура, при понижении до которой содержащийся в воздухе водяной пар достигнет насыщения.
f - Относительная влажность воздуха - влажноcть воздуха, измеренная на высоте 2 м над землей.
Te - Эффективная температура - температура, которую ощущает одетый по сезону человек в тени. Характеристика душности погоды. При расчете учитывается влияние влажности воздуха и скорости ветра на теплоощущения человека.
Tes - Эффективная температура на солнце - температура, которую ощущает человек, с поправкой на солнечный нагрев. Характеристика знойности погоды. Зависит от высоты солнца над горизонтом, облачности и скорости ветра. Ночью, в пасмурную погоду, а также при ветре 12 м/с и более поправка равна нулю.
P - Атмосферное давление - приведенное к уровню моря атмосферное давление.
Po - Атмосферное давление - измеренное на уровне метеостанции атмосферное давление.
Tmin - Минимальная температура - минимум температуры воздуха на высоте 2 м над землей.
Tmax - Максимальная температура - максимум температуры воздуха на высоте 2 м над землей.
R - Количество осадков - Количество выпавших осадков за 3 или 6 часов, мм.
SD - Снежный покров - Высота снежного покрова, см.